COSMOS 2356

Satellite information

Favourite Embed

Satellite Type and Status

PAYLOADIN ORBIT

Key statistics

Satellite COSMOS 2356 at a glance.

Uptime

10048

Days in orbit

Revolutions

≈ 12.2

Per day

Orbit

LEO

Low Earth Orbit

Inclination

82.6

Latest

Satellite identification and parameters

Extended collection of information and parameters for COSMOS 2356.

Object identification

Identified? True

Debris? False

Object name: COSMOS 2356

International designator: 1998-036E

Object number (NORAD): 25367

Object ID (CCSDS): 25367

Country: COMMONWEALTH OF INDEPENDENT STATES (CIS)

Current information (Y/N): Y

RCS size: MEDIUM

Orbital parameters

Period: 117.798 minutes

Inclination: 82.581 deg

SMA: 7960.125 km

Apoapsis: 1865.797 km

Periapsis: 1298.184 km

RAAN: 75.3429 deg

Eccentricy: 0.03565353

Argument of periapsis: 196.636 deg

Mean anomaly: 162.2764 deg

Mean motion: 12.22426897 rev/day

Mean motion (dot): -0.00000001 rev/day2

B* drag term: -0.000078313956 1/REarth

Two-line elements (TLE)

Creation date: Dec. 17, 2025, 2:25 a.m.

Reference frame: TEME

Reference center: EARTH

Epoch: Dec. 16, 2025, 5 p.m. UTC

TLE line 0: 0 COSMOS 2356

TLE line 1: 1 25367U 98036E 25350.70842887 -.00000001 00000-0 -78314-4 0 9998

TLE line 2: 2 25367 82.5810 75.3429 0356535 196.6360 162.2764 12.22426897227346

Live tracking on map

Real-time ground track for satellite COSMOS 2356.

In-orbit conjunctions

There are no conjunctions computed for COSMOS 2356, at the moment. Check back to stay up to date, as we update our databases every day.

Go to all conjunctions

Associated space launch

Second generation store-dump military communications satellites

COSMOS 2356 was lifted into orbit during the mission ‘Tsiklon-3 | Strela-3 119 to 124’, on board a Tsiklon-3 space rocket.

The launch took place on June 15, 1998, 10:58 p.m. from 32/1.

For more information about the launch, click the button.

Launch to space Tsiklon-3 | Strela-3 119 to 124
Tsiklon-3 | Strela-3 119 to 124

Agency: N/A

Status: Launch Successful

Launch date: June 15, 1998, 10:58 p.m. UTC

Rocket: Tsiklon-3

Launch pad: 32/1

Location: Plesetsk Cosmodrome, Russian Federation

...

Latest news about this satellite

There are no fresh news available about this satellite. Check back as we update our databases every day.


Newsletter sign-up

Weekly statistics, charts and insights to help you stay on top of the space industry.